Ashtabula, OH

12:53 AM EST on December 13, 2019 (GMT -0500)
Ashtabula County

Weather History for KHZY - September, 2019

Change the Weather History Date:

Monday, September 30, 2019

  Actual Average (KGKJ) Record (KGKJ)
Temperature  
Mean Temperature 68 °F -  
Max Temperature 80 °F 66 °F 89 °F (1953)
Min Temperature 59 °F 43 °F 30 °F (1951)
Cooling Degree Days 4    
Growing Degree Days 18 (Base 50)    
Moisture  
Dew Point 65 °F    
Average Humidity 88    
Maximum Humidity 100    
Minimum Humidity 71    
Precipitation  
Precipitation 0.01 in - - ()
Sea Level Pressure  
Sea Level Pressure 30.15 in    
Wind  
Wind Speed 2 mph (SSW)    
Max Wind Speed 8 mph    
Max Gust Speed -    
Visibility 10 miles    
Events Rain    
Averages and records for this station are not official NWS values.
T = Trace of Precipitation, MM = Missing Value Source: NWS Daily Summary

Daily Weather History Graph

Daily Weather History Graph

Search for Another Location

Airport or City:

Astronomy

Sep. 30, 2019 Rise Set
Actual Time 7:18 AM EDT 7:06 PM EDT
Civil Twilight 6:50 AM EDT 7:34 PM EDT
Nautical Twilight 6:18 AM EDT 8:06 PM EDT
Astronomical Twilight 5:45 AM EDT 8:39 PM EDT
Moon 9:21 AM EDT (9/30) 8:39 PM EDT (9/30)
Length of Visible Light 12h 43m
Length of Day
11h 48m
Waxing Crescent, 5% of the Moon is Illuminated
Sep 30
Waxing Crescent
Oct 5
First Quarter
Oct 13
Full
Oct 21
Last Quarter
Oct 27
New

Hourly Weather History & Observations

Time (EDT) Temp. Dew Point Humidity Pressure Visibility Wind Dir Wind Speed Gust Speed Precip Events Conditions
12:53 AM 59.0 °F 57.9 °F 96% 30.21 in 10.0 mi Calm Calm - N/A   Mostly Cloudy
1:53 AM 60.1 °F 57.9 °F 93% 30.20 in 10.0 mi East 4.6 mph - N/A   Overcast
2:53 AM 60.1 °F 57.9 °F 93% 30.19 in 10.0 mi Calm Calm - N/A   Clear
3:53 AM 60.1 °F 57.9 °F 93% 30.18 in 10.0 mi East 3.5 mph - N/A   Overcast
4:53 AM 61.0 °F 59.0 °F 93% 30.17 in 10.0 mi ESE 3.5 mph - N/A   Overcast
5:53 AM 61.0 °F 60.1 °F 97% 30.17 in 10.0 mi Calm Calm - N/A   Overcast
6:12 AM 61.0 °F 60.1 °F 97% 30.17 in 10.0 mi Calm Calm - N/A   Overcast
6:53 AM 61.0 °F 60.1 °F 97% 30.18 in 10.0 mi Calm Calm - N/A   Overcast
7:26 AM 62.1 °F 61.0 °F 96% 30.19 in 10.0 mi Calm Calm - 0.01 in Rain Light Rain
7:53 AM 62.1 °F 61.0 °F 96% 30.19 in 10.0 mi East 3.5 mph - 0.01 in   Overcast
9:02 AM 64.0 °F 63.0 °F 96% 30.20 in 10.0 mi South 3.5 mph - N/A   Overcast
9:23 AM 64.9 °F 64.0 °F 97% 30.20 in 10.0 mi SSW 4.6 mph - N/A   Overcast
9:38 AM 66.0 °F 64.9 °F 96% 30.19 in 10.0 mi Calm Calm - N/A   Overcast
9:53 AM 66.0 °F 64.9 °F 96% 30.19 in 10.0 mi SW 4.6 mph - N/A   Overcast
10:36 AM 69.1 °F 66.0 °F 90% 30.19 in 10.0 mi SW 4.6 mph - N/A   Mostly Cloudy
10:53 AM 70.0 °F 66.0 °F 87% 30.18 in 10.0 mi West 3.5 mph - N/A   Overcast
11:20 AM 71.1 °F 66.9 °F 87% 30.18 in 10.0 mi Variable 3.5 mph - N/A   Overcast
11:50 AM 71.6 °F 68.0 °F 88% 30.18 in 10.0 mi SW 4.6 mph - N/A   Mostly Cloudy
11:53 AM 72.0 °F 68.0 °F 87% 30.17 in 10.0 mi SW 4.6 mph - N/A   Mostly Cloudy
12:11 PM 73.9 °F 66.9 °F 79% 30.18 in 10.0 mi West 5.8 mph - N/A   Mostly Cloudy
12:41 PM 73.9 °F 68.0 °F 82% 30.17 in 10.0 mi Calm Calm - N/A   Scattered Clouds
12:53 PM 75.9 °F 68.0 °F 76% 30.15 in 10.0 mi West 4.6 mph - N/A   Scattered Clouds
1:06 PM 78.1 °F 68.0 °F 71% 30.16 in 10.0 mi Variable 5.8 mph - N/A   Mostly Cloudy
1:53 PM 75.9 °F 68.0 °F 76% 30.12 in 10.0 mi Calm Calm - N/A   Overcast
2:39 PM 77.0 °F 69.1 °F 76% 30.12 in 10.0 mi SW 4.6 mph - N/A   Overcast
2:53 PM 77.0 °F 69.1 °F 76% 30.10 in 10.0 mi Calm Calm - N/A   Overcast
3:53 PM 78.1 °F 69.1 °F 74% 30.09 in 9.0 mi SW 4.6 mph - N/A   Mostly Cloudy
4:43 PM 75.9 °F 68.0 °F 76% 30.10 in 10.0 mi Variable 4.6 mph - N/A   Mostly Cloudy
4:53 PM 77.0 °F 68.0 °F 74% 30.08 in 10.0 mi Variable 5.8 mph - N/A   Scattered Clouds
5:53 PM 77.0 °F 68.0 °F 74% 30.06 in 10.0 mi Calm Calm - N/A   Clear
6:53 PM 73.0 °F 69.1 °F 87% 30.08 in 10.0 mi Calm Calm - N/A   Clear
7:53 PM 68.0 °F 66.9 °F 96% 30.08 in 10.0 mi East 4.6 mph - N/A   Clear
8:53 PM 66.9 °F 66.9 °F 100% 30.08 in 8.0 mi Calm Calm - N/A   Clear
9:53 PM 69.1 °F 68.0 °F 96% 30.06 in 10.0 mi South 6.9 mph - N/A   Clear
10:53 PM 71.1 °F 68.0 °F 90% 30.05 in 10.0 mi SSE 8.1 mph - N/A   Clear
11:53 PM 71.1 °F 69.1 °F 93% 30.03 in 10.0 mi South 8.1 mph - N/A   Clear